User: anonymous   Login
Location: Boca do Mato
(22.9085°S, 43.2930°W)
Time: 07:04:52
(UTC+00:00)
Language:

DELTA 2 R/B (1) - Orbit

View from above orbital plane
View from above orbital plane
View from above satellite
View from above satellite

Ground track
Ground track

The orbit data is extracted from the following two-line orbital elements,

1 27665U 03005C   20273.94474125 -.00000090 +00000-0 -18011-5 0  9991
2 27665 039.5751 115.7778 0008341 165.9576 345.4896 14.28532523922589
Epoch (UTC): 29 September 2020 22:40:25
Eccentricity: 0.0008341
inclination: 39.5751°
perigee height: 790 km
apogee height: 802 km
right ascension of ascending node: 115.7778°
argument of perigee: 165.9576°
revolutions per day: 14.28532523
mean anomaly at epoch: 345.4896°
orbit number at epoch: 92258

The dashed part of the orbit path shows where the satellite is in the earth's shadow,  

DLR